Location: Moscow
(55.7500°N, 37.5830°E)
Time: 19:45:27
(UTC+03:00)

Explorer 7 - Pass Details

Date: 02 December 2021
Orbit: 483 x 674 km, 50.3° (Epoch: 19 January)

Event Time Altitude Azimuth Distance (km) Brightness Sun altitude
Rises 06:31:34 0° 197° (SSW) 2,782 10.4 -16.3°
Reaches altitude 10° 06:35:11 10° 166° (SSE) 1,836 9.9 -15.8°
Maximum altitude 06:36:46 12° 144° (SE) 1,693 10.1 -15.6°
Drops below altitude 10° 06:38:19 10° 121° (ESE) 1,795 10.7 -15.4°
Sets 06:41:45 0° 90° (E) 2,644 11.8 -14.9°
